Dewpoint
24 22 23 20 21 25 25 25 24 24 23 23 25 24 24 26 30 36 38 39 40 42 43 44 43 42 43 44 49 54 55 56 56 57 58 59 59 59 59 59 58 57 57 56
26 27 26 24 24 22 23 22 22 22 21 24 24 26 27 33 37 40 41 39 39 40 42 43 43 44 45 46 45 47 51 55 57 58 58 58 58 58 57 57 57 56 55 55
25 29 28 25 24 25 24 25 23 21 24 25 25 30 33 37 40 41 36 35 35 36 40 41 42 43 44 46 48 49 51 53 56 58 58 58 58 57 57 56 55 55 54 53
27 27 23 26 29 28 27 27 27 26 26 27 31 36 38 39 37 36 36 36 36 37 39 41 42 41 42 42 43 43 44 45 47 50 54 56 55 55 55 53 53 52 52 50
27 25 26 27 29 26 25 24 28 26 29 37 40 39 38 39 39 38 39 40 40 39 39 40 41 42 41 40 40 41 42 44 45 47 48 50 50 51 51 50 49 48 47 46
30 26 24 26 28 31 27 21 29 31 35 38 38 36 38 41 42 42 43 43 44 44 41 40 40 41 40 40 39 39 41 43 44 44 45 46 47 47 47 47 46 45 44 44
28 25 26 29 31 30 21 21 37 38 39 39 38 38 40 42 42 42 43 43 44 45 44 41 40 41 39 39 39 41 41 42 41 41 41 42 44 44 43 44 43 43 42 43
28 25 23 31 33 24 30 42 41 41 40 38 39 39 41 42 42 42 42 43 43 44 42 42 41 40 40 40 41 41 40 40 40 40 40 41 41 42 43 43 42 41 41 40
28 26 34 41 38 41 42 41 40 38 37 38 38 39 40 41 42 42 43 42 42 42 41 42 40 39 38 39 41 40 39 38 38 39 39 40 40 40 40 40 39 36 36 36
30 37 39 39 39 40 40 40 41 40 39 40 40 41 42 41 39 42 41 39 39 38 38 36 36 36 36 37 40 39 39 38 38 38 37 37 37 37 37 37 36 35 34 33
35 39 39 39 39 39 40 40 40 40 40 40 40 40 41 40 42 40 37 37 37 36 35 35 35 35 36 36 37 38 37 37 38 38 37 36 35 35 35 35 37 36 37 37
30 38 36 37 39 37 36 35 37 39 39 40 41 40 41 40 36 36 36 35 34 34 34 35 35 35 35 36 36 35 34 34 34 34 34 33 33 34 35 36 36 36 37 36
37 39 40 41 39 38 37 36 36 37 39 40 37 39 39 34 35 34 34 34 34 35 34 34 33 32 33 35 34 34 32 33 33 33 32 32 32 31 31 33 35 36 36 36
41 39 39 40 35 39 37 37 38 37 35 35 34 34 34 33 33 33 33 34 34 34 33 32 30 29 30 32 32 32 32 32 31 31 30 30 31 29 29 29 29 31 33 34
38 30 31 35 34 33 35 34 33 33 33 33 33 33 32 32 32 32 33 33 31 29 27 28 27 28 30 31 31 31 31 30 30 30 30 30 30 29 30 32 31 31 33 34
34 34 33 33 34 34 33 33 32 31 31 32 32 31 32 32 31 30 29 28 27 26 25 25 25 27 28 28 29 29 29 29 29 29 29 29 29 30 31 31 31 31 31 31
31 32 32 32 33 33 33 33 33 32 32 32 32 32 31 29 27 26 26 26 26 25 25 26 26 26 25 24 28 28 28 27 25 25 24 25 28 28 27 27 27 28 30 32
33 33 33 33 32 32 32 32 31 31 30 30 29 28 27 26 25 25 25 24 24 25 26 26 25 24 22 21 21 24 26 28 29 29 28 26 25 26 26 26 26 26 26 28
33 33 33 33 33 32 30 30 29 29 28 27 25 23 23 23 24 24 22 20 21 22 23 22 21 20 18 18 19 18 19 21 22 25 28 28 26 25 24 24 25 25 25 26
32 33 32 32 31 30 28 28 28 26 24 22 21 22 22 23 24 22 21 19 20 20 22 20 19 18 19 19 19 19 20 20 20 21 22 24 24 24 23 23 22 23 24 25
30 30 29 29 28 28 28 27 24 22 21 21 22 21 20 19 19 21 19 17 19 18 19 19 19 18 18 18 19 19 19 19 20 19 19 20 21 22 23 20 20 21 22 23
29 28 28 27 27 26 26 25 23 23 20 19 19 19 18 18 18 18 18 17 18 16 18 17 16 14 14 15 16 17 17 17 18 18 19 19 19 20 20 20 20 20 21 23
29 28 28 27 26 25 20 18 18 18 17 16 16 16 18 18 18 15 14 17 15 14 15 14 12 11 11 12 12 11 12 12 12 13 13 13 13 13 14 14 15 15 15 15
28 27 27 26 22 18 17 17 17 16 15 15 15 14 14 13 15 17 17 15 12 12 11 11 10 10 9 9 9 10 10 10 10 10 10 10 10 11 11 11 11 12 12 12
27 26 25 22 18 17 18 18 20 19 18 17 17 16 16 16 13 13 12 12 11 9 8 8 8 8 7 8 9 9 9 9 9 9 8 8 8 8 9 9 9 9 9 9
26 25 23 21 20 20 20 21 19 17 15 14 13 12 12 12 11 10 9 8 7 6 6 5 5 5 5 6 6 7 8 7 7 7 7 7 7 7 7 7 8 8 8 9
24 23 22 22 22 21 20 20 18 17 14 12 12 10 11 9 9 8 6 5 4 4 3 3 3 3 3 3 4 5 5 5 5 6 6 6 6 6 7 7 8 8 8 8
Wind_Speed
21 12 7 10 23 23 26 33 20 22 18 12 15 12 11 8 10 12 16 18 19 21 22 22 23 24 22 20 14 10 16 17 24 19 17 17 20 22 19 17 18 16 16 16
18 17 14 13 9 17 8 7 13 9 16 12 8 8 6 8 7 10 12 14 16 18 19 21 21 21 21 22 21 14 11 13 10 12 14 19 19 15 14 14 13 14 17 19
15 3 7 9 25 13 11 10 12 17 16 9 4 3 6 5 7 7 9 12 14 16 16 16 19 19 21 20 19 19 16 14 13 11 13 15 13 12 16 17 15 19 18 18
22 5 18 14 6 20 25 14 19 7 4 3 3 3 7 5 4 3 6 9 13 14 15 16 17 18 15 19 21 22 22 20 18 15 13 11 10 12 12 10 15 16 17 18
19 22 13 9 4 9 13 14 14 18 9 6 7 12 5 4 3 3 7 9 12 14 13 16 19 19 18 22 20 21 23 23 22 21 20 16 13 12 9 9 10 10 8 12
6 14 32 2 16 12 8 19 16 19 13 12 14 8 6 5 1 5 8 11 14 16 14 18 21 21 21 22 21 23 21 19 17 17 17 18 17 15 9 7 7 7 8 10
8 12 9 8 7 11 11 14 10 10 12 12 8 4 8 3 4 4 5 9 14 15 15 18 19 19 20 21 23 20 19 19 19 18 17 15 13 10 9 3 5 8 11 14
6 8 21 11 5 13 6 4 9 11 8 11 8 5 4 4 6 6 7 9 11 12 14 17 18 17 17 18 18 17 17 17 19 19 17 16 14 10 4 2 6 8 14 14
16 11 2 3 3 3 7 12 8 14 10 9 6 4 6 6 7 11 9 9 9 10 12 14 16 16 16 17 17 18 18 18 18 17 16 16 15 13 8 5 6 10 13 14
8 6 8 11 12 13 15 18 15 12 8 6 3 2 2 4 5 5 6 11 12 13 14 15 14 14 14 16 16 14 16 16 16 16 17 18 17 16 14 13 14 15 15 13
3 9 15 6 10 12 13 11 10 5 4 3 3 1 3 5 7 7 9 13 15 14 13 13 15 17 18 19 17 15 14 15 14 13 14 14 15 16 15 14 13 12 8 4
20 19 12 9 17 13 11 9 10 6 4 4 3 5 9 3 8 10 11 12 13 13 11 10 11 12 14 14 14 15 14 12 13 12 11 11 12 12 11 10 9 8 6 4
8 7 6 17 17 9 9 10 7 7 6 8 5 1 8 10 10 11 10 11 11 9 8 10 12 14 16 16 14 12 10 11 10 11 10 10 9 10 11 9 9 7 7 8
18 18 10 11 8 14 8 5 5 6 10 10 14 14 14 13 11 11 11 10 9 11 13 13 13 14 15 14 12 12 12 12 10 10 10 10 10 10 10 11 12 12 11 12
14 10 7 8 8 10 8 17 16 15 14 14 13 14 13 14 13 11 9 9 12 13 12 11 11 13 14 14 13 13 12 11 11 10 10 10 10 10 9 9 10 11 12 10
11 14 15 17 15 13 15 14 17 13 13 12 13 12 13 13 13 12 13 13 12 11 9 10 12 13 14 14 12 10 11 12 11 9 9 9 9 10 10 10 10 12 11 11
21 15 15 14 14 13 14 13 13 13 12 12 12 12 13 13 13 12 11 10 10 11 11 12 13 13 13 15 14 13 13 13 11 12 11 11 9 8 10 11 11 11 11 11
17 15 15 18 16 16 15 15 14 13 11 11 12 13 12 11 10 10 11 10 11 13 13 13 12 12 13 15 14 12 13 13 13 12 11 11 10 7 8 9 9 10 12 12
18 21 19 18 17 16 15 14 14 13 12 11 13 12 10 10 10 11 11 16 16 13 14 14 15 14 15 16 17 14 13 13 13 12 10 10 10 10 10 11 11 10 10 11
18 17 19 19 17 18 17 15 15 13 10 13 13 13 14 11 9 10 12 15 11 8 11 14 14 15 17 17 18 13 12 13 12 13 12 12 12 10 9 9 11 11 10 11
18 18 18 19 19 18 16 15 17 16 13 13 16 16 15 13 13 9 10 10 12 14 14 15 16 14 12 15 14 14 13 12 12 12 12 12 13 13 8 9 13 13 12 12
18 19 19 19 19 17 14 13 13 13 15 17 14 13 13 12 10 12 13 10 9 15 11 12 12 15 14 15 13 14 14 14 14 14 14 12 12 11 10 11 11 12 12 12
18 18 18 17 17 16 15 15 16 18 18 16 15 14 12 9 9 10 9 11 10 13 11 11 14 17 16 13 13 14 15 15 15 14 14 13 13 13 13 13 12 13 14 13
17 17 16 17 18 18 18 13 15 16 18 14 12 10 9 10 11 9 8 9 11 12 13 12 15 16 16 14 15 14 14 14 14 14 13 14 13 13 14 14 14 14 14 15
17 17 16 17 16 14 16 15 14 13 14 12 11 10 11 9 7 5 9 9 12 12 13 14 16 16 14 14 15 15 14 14 14 14 14 14 14 14 14 14 14 14 14 14
17 15 13 12 15 15 14 13 12 11 13 13 10 9 10 10 10 11 11 12 12 12 14 14 14 15 15 14 15 15 14 15 15 15 14 14 14 14 15 15 15 14 14 13
15 16 14 12 11 13 13 14 15 12 11 13 12 6 9 11 11 11 12 12 13 14 14 14 14 14 14 15 14 14 13 13 15 14 14 14 14 14 14 14 14 14 14 16
Wind_Direction
239 232 221 221 218 196 205 225 221 248 246 238 223 248 294 313 322 335 341 348 349 351 341 340 344 335 323 311 295 256 246 240 243 251 248 237 236 232 225 211 214 209 206 204
242 233 246 251 233 222 177 184 224 231 252 226 251 269 290 317 328 341 350 354 355 355 352 355 358 355 355 352 343 336 307 270 271 266 246 238 239 235 224 226 214 208 211 208
248 211 169 235 234 201 206 199 197 235 252 171 222 271 315 327 2 352 2 359 356 356 349 354 3 357 5 10 19 29 21 1 341 318 286 263 247 232 231 227 212 213 209 206
243 154 244 250 234 231 225 223 218 216 188 184 235 87 91 71 82 34 7 9 2 353 349 354 355 1 357 15 16 18 17 10 5 354 329 305 283 269 260 235 227 218 211 206
214 215 262 254 197 167 183 233 218 222 221 167 147 129 98 118 109 54 20 11 359 348 347 355 355 350 1 11 10 14 9 2 356 353 342 333 319 301 273 249 236 226 208 194
154 221 238 197 193 152 101 261 202 202 189 163 150 199 186 151 80 12 7 353 352 347 344 359 354 352 3 3 8 7 357 351 352 354 351 344 338 330 319 303 260 189 162 156
181 232 248 241 194 140 201 253 166 176 163 150 170 160 134 107 68 46 21 5 356 354 4 358 352 352 360 4 360 347 346 346 352 355 351 347 339 333 319 279 160 147 143 139
177 240 251 186 155 201 186 115 155 130 114 105 95 73 54 28 14 13 12 12 36 342 11 357 359 3 3 3 341 346 352 356 351 352 355 352 350 346 356 146 159 160 149 130
201 232 177 86 156 114 164 144 125 116 100 98 85 40 358 349 357 342 356 12 17 2 6 24 24 22 15 350 346 357 12 13 8 4 15 17 13 5 7 43 87 70 74 73
172 185 137 111 93 93 109 118 117 109 110 111 118 63 13 357 338 328 354 32 33 38 37 26 23 22 17 0 358 24 32 33 31 29 31 37 41 38 42 55 55 59 53 38
198 122 109 127 139 136 110 103 106 113 120 150 160 101 284 289 317 22 36 44 49 50 44 29 20 22 16 11 11 29 31 25 25 33 37 35 46 44 41 32 38 33 9 328
227 179 207 195 160 148 135 156 168 155 197 238 230 254 265 57 63 62 52 47 51 51 44 35 29 23 12 6 21 36 40 37 38 34 29 30 24 10 18 10 358 10 355 326
175 121 105 154 159 173 196 194 174 189 228 256 43 17 118 105 82 78 71 61 57 53 49 41 32 23 10 4 16 25 27 30 30 27 25 25 23 18 2 352 342 346 348 337
130 121 115 169 191 198 195 148 121 108 81 92 104 90 95 97 88 76 65 60 52 46 38 30 26 17 1 360 10 17 21 19 16 9 6 6 5 359 355 354 347 340 338 332
153 87 128 146 108 75 107 118 104 93 91 85 85 94 94 93 84 71 54 62 61 50 35 29 23 12 359 1 14 17 16 12 6 3 3 1 358 355 352 346 348 340 339 343
115 107 103 105 99 95 104 100 109 105 100 97 91 89 91 89 83 68 54 48 56 45 31 27 25 5 1 2 4 6 3 5 3 354 355 358 359 352 352 350 355 351 343 341
126 124 116 105 102 97 99 97 100 101 100 96 98 100 94 86 75 66 61 59 65 55 42 33 21 12 10 11 7 1 351 348 348 350 349 343 352 356 355 354 351 346 339 342
112 120 122 127 126 114 102 99 102 101 100 101 97 90 85 83 85 76 63 62 73 61 38 23 8 6 7 8 3 357 355 348 344 338 336 333 343 337 334 335 338 334 332 326
106 113 115 116 116 114 111 105 101 101 98 99 96 91 88 82 79 77 62 53 39 32 15 8 3 5 358 351 354 345 338 334 332 327 329 332 331 329 336 333 333 336 319 323
105 103 107 108 108 112 109 105 101 101 107 111 102 87 80 80 100 102 79 67 44 4 357 4 5 2 351 344 343 337 331 329 324 319 317 318 318 316 318 316 327 335 329 321
119 116 112 109 106 102 104 109 111 97 98 100 94 88 83 72 63 61 52 45 19 9 10 11 11 360 348 351 354 355 347 338 339 334 330 327 321 315 323 326 329 326 324 315
123 119 115 111 108 105 99 101 111 111 100 95 94 95 87 69 68 74 62 47 16 16 18 17 7 3 5 6 6 3 3 5 3 360 358 353 349 350 348 342 345 347 341 335
123 123 118 118 117 108 104 107 112 112 105 99 92 82 78 71 53 50 41 22 29 26 29 19 12 17 17 19 16 15 15 12 8 7 6 5 8 9 13 12 10 11 11 13
124 121 113 112 116 121 117 113 103 101 99 92 86 80 84 83 60 45 59 48 41 40 37 21 23 25 27 22 21 19 16 14 10 8 9 11 12 13 17 17 18 16 22 25
120 120 127 132 127 122 123 122 114 110 101 91 82 73 70 59 95 72 68 58 47 46 38 26 29 29 28 24 24 21 17 16 16 15 14 16 15 17 18 20 22 23 28 32
127 132 134 130 135 138 138 135 129 126 120 108 89 83 85 86 84 74 64 58 54 51 46 34 33 33 31 28 26 23 19 20 19 19 18 19 19 22 23 24 26 27 28 30
118 121 120 116 130 140 146 142 140 143 137 128 121 103 100 89 81 76 71 66 62 54 46 40 38 35 34 32 28 22 19 18 21 20 20 21 22 23 23 27 29 31 36 38